Location: Castiglione Fibocchi
(43.5333°N, 11.7667°E)
Time: 18:20:03
(UTC+00:00)

Cosmos 1655 Rocket - Pass Details

Date: 15 August 2020
Orbit: 969 x 1007 km, 83.0° (Epoch: 17 September)

Event Time Altitude Azimuth Distance (km) Brightness Sun altitude
Rises 01:09:40 0° 347° (NNW) 3,688 7.7 -27.1°
Reaches altitude 10° 01:12:14 10° 344° (NNW) 2,732 6.8 -26.8°
Maximum altitude 01:18:17 54° 268° (W) 1,163 4.1 -26.2°
Enters shadow 01:18:27 54° 262° (W) 1,164 4.1 -26.2°
